Temperature
6 6 6 6 6 6 6 6 5 4 5 5 5 5 5 5 5 5 5 5 5 5 5 5 5 5 4 5 5 5 5 5 5 4 5 5 5 5
6 5 5 5 5 5 5 5 5 5 4 5 5 5 5 5 5 5 5 5 5 5 5 4 4 4 4 4 4 4 4 4 4 4 4 4 4 4
5 5 5 5 5 5 5 5 5 4 4 5 5 5 5 5 5 5 5 5 5 5 4 4 4 4 4 4 4 4 4 4 4 4 4 4 4 4
5 5 5 5 5 5 5 5 4 4 4 4 5 4 5 4 4 4 4 4 5 4 4 4 4 4 4 4 4 4 4 4 4 4 4 4 4 4
4 4 4 4 4 4 4 4 4 4 4 4 4 4 4 4 4 4 4 4 4 4 4 4 4 4 4 3 3 3 3 3 3 3 3 3 3 4
4 4 4 4 4 4 4 4 4 3 3 3 3 3 3 3 3 3 3 4 4 4 4 4 4 3 3 3 3 3 3 3 3 3 3 3 3 3
3 3 3 3 3 3 3 3 3 3 3 3 3 2 2 2 2 2 3 3 3 3 3 4 3 3 3 3 3 3 3 3 3 3 3 3 3 3
3 3 3 3 3 3 3 3 2 2 3 2 2 2 2 2 2 2 2 2 2 3 3 3 3 3 3 3 3 3 3 3 3 3 3 3 3 3
2 3 3 3 2 2 2 2 2 2 2 2 2 2 2 2 2 2 2 2 2 3 2 3 3 3 3 3 2 3 2 2 2 3 3 3 3 3
2 2 2 2 2 2 2 2 2 2 2 2 1 1 2 2 2 2 2 2 2 2 2 2 3 3 3 3 2 2 2 2 2 2 2 2 2 3
1 1 1 1 2 1 1 2 2 2 2 1 1 2 2 2 2 2 2 1 2 2 2 2 2 2 2 2 2 2 2 2 2 2 2 2 2 2
1 1 1 1 1 1 1 1 1 1 1 2 2 2 2 2 2 1 1 1 1 1 1 1 1 1 1 2 2 2 2 2 2 2 2 2 2 2
-0 0 0 0 0 0 0 0 1 1 1 1 1 1 1 2 2 2 1 1 1 1 1 1 1 1 1 1 2 2 2 2 2 2 2 2 2 2
-0 -0 -0 -0 0 0 -0 0 0 0 0 1 1 1 1 1 1 1 1 1 1 1 1 0 0 1 1 1 1 1 1 2 2 2 2 2 2 2
-1 -1 -1 -1 -0 -0 -0 -0 -0 -0 0 0 0 0 0 1 1 1 1 1 1 1 1 0 1 1 1 1 1 1 1 1 2 2 2 1 1 2
-1 -1 -1 -1 -1 -1 -1 -1 -1 -1 -1 -1 -0 -0 0 0 0 0 0 1 1 1 0 0 0 0 1 1 1 1 1 1 1 1 1 1 1 1
-2 -1 -1 -1 -1 -1 -1 -1 -1 -1 -1 -1 -1 -1 -0 -0 -0 -0 -0 -0 -0 0 0 0 0 0 0 0 1 1 1 1 1 1 1 1 1 1
-2 -2 -2 -2 -2 -2 -2 -2 -2 -2 -1 -1 -1 -1 -1 -1 -1 -1 -1 -1 -0 -0 -0 -0 0 0 0 0 0 1 1 1 1 1 1 1 1 1
-3 -2 -3 -3 -3 -3 -2 -2 -2 -2 -2 -2 -1 -1 -1 -1 -1 -1 -1 -1 -1 -1 -1 -0 -0 -0 -0 -0 0 0 0 1 1 1 1 1 1 1
-3 -3 -3 -3 -3 -3 -3 -3 -2 -2 -2 -2 -2 -2 -2 -2 -1 -1 -1 -1 -1 -1 -1 -1 -1 -1 -1 -1 -0 0 0 0 0 0 0 1 1 1
-4 -4 -4 -4 -3 -3 -3 -3 -3 -3 -3 -3 -2 -2 -2 -2 -2 -2 -2 -2 -1 -1 -1 -1 -1 -1 -1 -1 -1 -0 -0 -0 -0 -0 0 0 0 0
-4 -4 -4 -4 -4 -4 -4 -3 -3 -3 -3 -3 -3 -3 -3 -2 -2 -2 -2 -2 -2 -2 -1 -1 -1 -1 -1 -1 -1 -1 -0 -0 -0 -0 -0 -0 -1 -0
-5 -5 -5 -4 -4 -4 -4 -4 -4 -4 -4 -3 -3 -3 -3 -3 -3 -3 -2 -2 -2 -2 -2 -2 -2 -1 -1 -1 -1 -1 -1 -1 -1 -1 -1 -1 -1 -0
Wind_Speed
1 1 1 1 0 1 1 1 1 3 4 2 1 1 3 5 7 7 7 9 10 10 11 11 10 10 10 10 10 10 11 11 11 11 12 12 11 10
1 1 1 1 1 1 1 2 2 2 4 3 2 3 4 5 7 7 7 9 9 10 10 10 10 9 10 10 10 10 10 10 10 11 11 12 11 10
1 1 2 2 1 1 1 2 2 2 4 5 3 3 3 4 5 6 7 6 7 10 10 10 10 9 9 9 9 9 9 10 10 11 11 12 11 10
1 1 2 2 2 2 2 2 3 3 3 6 5 4 4 4 4 4 5 6 6 9 10 10 10 9 9 9 9 8 9 9 10 11 11 12 10 10
1 1 1 2 2 2 3 3 3 3 3 4 5 4 4 4 4 5 5 4 6 7 8 9 9 9 9 9 8 8 8 9 10 10 11 11 11 10
1 1 1 1 2 3 3 3 3 3 3 3 4 4 4 3 3 4 5 4 5 5 6 8 9 9 9 8 8 8 8 9 10 10 11 11 11 11
1 1 1 2 3 3 3 3 3 3 3 3 4 4 4 4 4 4 5 5 5 3 3 4 5 4 5 7 7 7 8 9 9 9 10 11 11 11
2 2 2 2 3 4 5 5 4 3 3 3 4 5 5 5 4 4 4 4 4 2 4 5 4 4 4 4 7 8 8 9 9 9 10 10 10 10
2 2 2 2 3 2 4 5 5 5 5 4 5 6 6 5 5 5 5 5 5 4 4 5 3 4 4 6 9 9 9 8 9 10 10 10 10 10
2 2 2 2 3 3 3 4 4 4 4 4 4 6 6 5 5 5 5 5 5 3 2 3 3 4 5 5 8 8 8 8 9 10 10 10 10 10
2 2 2 2 4 5 4 4 5 4 5 7 8 8 9 8 6 2 2 3 4 4 1 1 2 4 4 3 5 7 8 9 9 9 10 10 10 8
2 2 3 3 4 4 3 3 5 5 5 6 6 6 5 5 5 2 2 3 3 3 1 1 2 2 3 2 3 4 6 7 9 8 9 9 9 5
2 2 2 5 6 6 5 4 6 6 4 4 4 4 4 3 3 3 3 3 3 3 2 2 2 2 2 3 3 3 3 4 4 5 7 9 9 6
3 2 3 6 7 7 5 6 7 6 3 3 3 4 4 4 4 4 4 4 4 4 5 3 2 3 3 3 4 4 4 3 3 4 4 7 7 8
3 4 6 6 6 5 6 6 5 3 3 3 4 4 4 4 4 3 3 3 3 3 4 4 3 3 3 3 3 3 4 4 3 3 4 4 4 4
3 4 6 6 5 5 5 4 3 3 3 3 4 4 3 3 4 3 3 3 2 3 3 4 3 2 3 3 3 4 3 3 4 5 4 4 4 3
4 2 2 2 2 3 3 3 3 3 3 3 3 3 3 4 4 3 3 2 2 3 3 3 3 3 2 2 2 3 3 3 3 4 4 4 4 3
4 2 2 2 3 3 3 3 3 3 3 3 3 3 3 3 4 3 3 2 3 3 3 3 3 3 3 2 2 2 2 3 3 3 3 3 4 3
2 2 2 3 3 3 3 3 3 3 3 3 3 3 3 3 3 3 3 3 3 3 3 2 2 2 3 4 4 2 1 3 3 3 3 2 3 4
2 2 3 3 3 3 3 3 3 3 3 3 3 3 3 3 3 3 3 3 3 3 2 2 2 2 2 2 3 4 4 2 2 2 3 2 3 4
2 2 3 3 3 3 3 3 3 3 3 3 3 3 3 3 3 3 3 3 2 2 2 3 3 3 2 1 2 3 4 4 3 2 2 2 3 3
3 3 3 3 3 3 3 3 3 3 3 3 3 3 3 3 3 3 3 2 2 2 2 2 2 1 1 1 2 3 4 5 6 5 3 1 1 1
3 3 3 3 3 3 3 3 3 3 3 3 3 3 3 3 3 3 3 2 2 2 2 2 2 2 2 1 2 2 4 4 4 4 5 6 5 5
Wind_Direction
306 319 315 310 287 284 286 236 246 288 283 277 306 318 335 323 322 323 321 318 321 323 327 329 328 331 333 334 336 338 339 338 339 338 336 334 330 326
270 290 313 325 337 300 261 267 256 256 276 280 291 309 318 317 317 319 313 317 319 319 321 326 328 330 332 333 334 337 337 339 341 339 338 337 332 327
316 322 327 333 323 317 286 267 271 267 276 292 293 306 302 309 320 317 315 314 314 321 324 326 327 329 331 332 334 337 338 340 341 340 339 338 334 332
299 314 311 322 318 305 298 286 278 276 273 288 303 307 305 297 306 312 321 322 320 317 323 324 327 329 329 330 333 338 340 341 341 340 337 337 332 329
287 272 294 319 310 305 302 298 300 298 292 290 297 306 309 311 317 312 315 315 318 321 321 323 324 327 326 325 328 333 336 338 339 339 338 336 333 328
286 286 289 296 299 306 303 310 315 311 307 300 302 311 310 312 316 314 314 314 316 325 325 323 320 321 319 320 323 328 331 333 336 337 336 335 332 329
280 285 289 298 306 304 308 307 308 305 309 303 298 308 311 324 312 305 303 308 306 309 321 319 313 309 310 311 316 319 322 327 331 333 332 332 332 330
272 286 291 282 306 316 315 319 318 302 296 295 292 292 292 301 303 301 302 313 303 302 314 303 308 304 307 298 309 317 319 324 328 330 330 331 329 330
258 266 294 306 317 307 318 325 321 317 308 291 284 284 284 287 291 290 294 298 285 287 299 289 293 295 302 303 310 313 317 323 329 329 329 330 330 331
255 246 269 289 295 315 321 315 311 307 308 308 282 283 289 279 268 269 275 287 297 290 278 274 289 291 304 294 306 316 323 327 328 327 328 328 329 330
294 268 264 274 294 318 320 310 309 311 317 314 310 307 305 302 306 296 300 309 309 302 284 259 284 307 293 281 294 311 319 322 325 329 332 331 331 331
301 292 280 290 298 307 302 298 299 305 318 320 319 318 313 307 313 294 269 286 304 288 288 297 289 326 305 281 293 301 311 316 322 324 330 335 337 341
297 297 296 308 307 300 302 287 292 307 308 312 315 317 320 317 312 310 285 270 278 277 280 299 292 292 270 293 298 299 310 320 320 323 326 330 332 336
291 296 301 307 307 304 299 304 312 317 305 310 314 318 320 317 313 312 303 294 275 264 263 264 265 275 288 298 297 306 314 312 324 327 325 326 327 328
302 308 311 309 305 301 300 308 311 300 295 302 303 303 303 302 305 311 308 311 324 309 276 267 268 275 268 272 293 306 314 309 322 330 329 325 319 325
311 309 312 310 305 304 309 306 295 284 290 283 291 297 302 309 311 311 312 324 334 330 327 316 301 282 281 281 278 291 303 299 316 328 328 327 316 306
309 304 304 311 312 314 309 304 306 304 297 296 298 304 310 315 314 316 314 316 320 323 331 339 347 334 285 270 287 291 303 313 314 326 330 329 325 319
312 293 295 299 300 302 303 304 304 302 300 300 293 294 300 305 310 317 316 307 311 317 319 328 345 353 349 321 267 278 309 315 324 327 329 330 330 332
302 290 288 292 293 296 295 294 296 301 302 298 295 295 297 299 303 308 312 315 316 316 315 318 338 2 351 332 317 292 296 317 332 334 331 332 314 315
288 290 292 292 291 291 294 294 295 301 304 303 305 302 299 297 295 300 300 303 308 315 323 325 324 321 296 289 297 309 314 315 326 327 328 332 325 315
298 298 298 299 297 296 295 294 293 296 301 303 305 305 300 292 291 292 294 299 307 306 307 308 304 314 323 341 336 330 334 333 332 324 327 342 350 3
303 303 301 299 300 297 294 294 298 303 306 303 302 299 297 291 290 290 292 295 300 301 306 319 326 343 10 3 341 333 340 348 351 356 2 355 11 346
305 306 304 302 301 297 292 288 289 295 298 302 303 300 297 295 295 294 295 294 305 314 336 347 346 351 350 346 345 341 344 350 357 8 7 359 354 335
Height
1503 1503 1503 1503 1503 1503 1503 1503 1503 1499 1497 1496 1496 1495 1493 1492 1490 1488 1486 1484 1481 1479 1477 1474 1472 1470 1468 1465 1463 1461 1459 1457 1455 1454 1452 1450 1449 1448
1500 1501 1501 1500 1500 1500 1500 1500 1500 1498 1495 1493 1493 1492 1490 1488 1487 1485 1483 1481 1478 1476 1474 1471 1469 1467 1465 1463 1460 1458 1457 1455 1453 1451 1449 1447 1445 1444
1496 1497 1497 1498 1497 1497 1497 1497 1496 1495 1492 1490 1490 1488 1487 1485 1483 1482 1479 1477 1475 1473 1471 1468 1466 1464 1462 1460 1458 1456 1454 1452 1450 1448 1446 1444 1443 1441
1493 1494 1494 1494 1494 1494 1494 1493 1493 1492 1490 1487 1486 1485 1483 1482 1480 1478 1476 1474 1472 1470 1467 1465 1464 1462 1459 1457 1455 1453 1451 1449 1447 1446 1444 1442 1440 1438
1490 1490 1491 1491 1491 1491 1490 1490 1489 1489 1487 1485 1482 1481 1480 1478 1476 1474 1472 1470 1468 1466 1464 1463 1461 1459 1457 1454 1453 1451 1449 1447 1445 1443 1441 1439 1437 1435
1488 1487 1487 1488 1488 1487 1487 1486 1486 1485 1483 1481 1479 1478 1476 1475 1473 1470 1468 1467 1465 1463 1461 1460 1458 1456 1454 1452 1450 1448 1446 1444 1442 1440 1438 1436 1434 1432
1484 1484 1484 1485 1485 1485 1484 1483 1482 1481 1480 1478 1476 1475 1473 1471 1469 1467 1465 1463 1461 1460 1458 1456 1454 1452 1450 1448 1447 1445 1444 1442 1440 1437 1435 1433 1431 1429
1481 1481 1482 1482 1482 1482 1481 1480 1480 1478 1476 1475 1473 1472 1470 1468 1466 1465 1463 1460 1457 1457 1455 1452 1451 1449 1447 1445 1444 1443 1441 1439 1437 1434 1432 1430 1428 1426
1478 1478 1478 1478 1478 1478 1477 1477 1476 1475 1474 1472 1470 1469 1467 1465 1464 1462 1460 1458 1456 1454 1451 1448 1447 1445 1444 1443 1441 1440 1438 1436 1433 1431 1429 1427 1425 1423
1475 1475 1474 1474 1475 1475 1474 1472 1471 1471 1470 1468 1467 1466 1464 1462 1461 1459 1457 1455 1453 1451 1450 1447 1444 1442 1441 1440 1438 1437 1435 1433 1430 1428 1426 1424 1422 1420
1471 1471 1471 1471 1471 1471 1470 1469 1468 1467 1466 1465 1464 1462 1460 1459 1457 1456 1454 1452 1449 1448 1447 1445 1442 1439 1437 1436 1435 1434 1432 1430 1428 1425 1423 1421 1419 1417
1468 1468 1468 1468 1468 1467 1467 1465 1464 1463 1462 1461 1460 1459 1457 1455 1454 1453 1451 1449 1447 1445 1444 1442 1440 1438 1435 1433 1432 1431 1429 1427 1425 1423 1420 1418 1416 1415
1465 1464 1464 1464 1464 1464 1463 1462 1461 1460 1459 1458 1456 1455 1453 1452 1451 1449 1448 1447 1445 1444 1443 1441 1438 1436 1435 1431 1429 1428 1426 1424 1422 1420 1418 1416 1415 1413
1461 1461 1461 1461 1460 1460 1459 1458 1457 1456 1455 1454 1453 1451 1450 1449 1448 1446 1445 1444 1443 1441 1440 1439 1437 1435 1432 1429 1427 1425 1424 1422 1420 1418 1416 1415 1413 1411
1458 1458 1458 1457 1457 1456 1456 1455 1454 1453 1452 1451 1449 1448 1447 1446 1445 1443 1442 1441 1439 1439 1437 1436 1435 1433 1431 1429 1426 1423 1421 1419 1418 1416 1414 1412 1410 1409
1455 1455 1454 1454 1453 1453 1452 1452 1451 1450 1449 1448 1446 1446 1445 1443 1442 1440 1439 1437 1436 1435 1435 1434 1432 1431 1428 1427 1425 1422 1420 1418 1416 1414 1413 1411 1409 1407
1452 1451 1451 1450 1450 1449 1449 1448 1448 1447 1446 1445 1444 1443 1442 1440 1439 1438 1437 1435 1433 1432 1431 1431 1430 1428 1427 1425 1422 1420 1419 1417 1415 1413 1411 1409 1407 1406
1449 1448 1447 1447 1446 1446 1446 1445 1444 1444 1443 1442 1441 1440 1439 1438 1437 1436 1434 1433 1432 1430 1429 1428 1427 1425 1424 1422 1422 1419 1417 1415 1414 1412 1410 1407 1406 1405
1446 1445 1444 1444 1444 1443 1443 1442 1441 1441 1440 1439 1438 1437 1436 1435 1434 1433 1432 1431 1430 1429 1428 1426 1425 1423 1422 1420 1419 1418 1416 1414 1412 1411 1409 1407 1405 1404
1443 1443 1442 1441 1441 1440 1440 1439 1438 1438 1437 1436 1436 1435 1434 1433 1432 1431 1430 1429 1428 1427 1426 1425 1424 1423 1421 1421 1418 1417 1415 1413 1411 1410 1408 1406 1405 1404
1440 1440 1439 1439 1438 1437 1437 1436 1435 1435 1434 1434 1433 1432 1431 1431 1430 1429 1429 1428 1427 1426 1424 1423 1423 1423 1421 1420 1418 1416 1415 1413 1411 1409 1407 1405 1403 1402
1437 1437 1436 1436 1435 1434 1434 1433 1433 1432 1432 1431 1430 1429 1429 1428 1428 1427 1427 1426 1425 1424 1424 1423 1422 1421 1419 1418 1417 1415 1414 1413 1411 1410 1408 1407 1405 1403
1434 1434 1433 1432 1432 1431 1431 1430 1430 1429 1429 1428 1428 1427 1426 1426 1426 1425 1425 1424 1423 1423 1422 1421 1420 1419 1418 1418 1416 1415 1413 1412 1411 1410 1409 1408 1406 1405